Time,TemperatureF,DewpointF,PressureIn,WindDirection,WindDirectionDegrees,WindSpeedMPH,WindSpeedGustMPH,Humidity,HourlyPrecipIn,Conditions,Clouds,dailyrainin,SoftwareType,DateUTC
2013-10-07 00:00:00,60.6,57.0,29.86,SW,223,0.0,0.0,88,0.00,,,0.00,Wunderground v.1.15,2013-10-07 04:00:00,
2013-10-07 00:05:00,60.6,57.0,29.86,SW,223,0.0,0.0,88,0.00,,,0.00,Wunderground v.1.15,2013-10-07 04:05:00,
2013-10-07 00:10:00,60.7,57.1,29.86,SW,223,0.0,0.0,88,0.00,,,0.00,Wunderground v.1.15,2013-10-07 04:10:00,
2013-10-07 00:15:00,60.7,57.1,29.86,SW,223,0.0,0.0,88,0.00,,,0.00,Wunderground v.1.15,2013-10-07 04:15:00,
2013-10-07 00:20:00,60.8,57.2,29.85,SW,223,0.0,0.0,88,0.00,,,0.00,Wunderground v.1.15,2013-10-07 04:20:00,
2013-10-07 00:25:00,60.8,57.2,29.86,SW,223,0.0,0.0,88,0.00,,,0.00,Wunderground v.1.15,2013-10-07 04:25:00,
2013-10-07 00:30:00,60.9,57.3,29.85,SW,223,0.0,0.0,88,0.00,,,0.00,Wunderground v.1.15,2013-10-07 04:30:00,
2013-10-07 00:40:00,61.2,57.6,29.85,SW,223,0.0,0.0,88,0.00,,,0.00,Wunderground v.1.15,2013-10-07 04:40:00,
2013-10-07 00:50:00,61.4,57.8,29.85,SW,223,0.0,0.0,88,0.00,,,0.00,Wunderground v.1.15,2013-10-07 04:50:00,
2013-10-07 00:55:00,61.5,57.9,29.85,SW,223,0.0,0.0,88,0.00,,,0.00,Wunderground v.1.15,2013-10-07 04:55:00,
2013-10-07 01:00:00,61.6,58.0,29.85,SW,223,0.0,0.0,88,0.00,,,0.00,Wunderground v.1.15,2013-10-07 05:00:00,
2013-10-07 01:10:00,61.7,58.1,29.85,SW,223,0.0,0.0,88,0.00,,,0.00,Wunderground v.1.15,2013-10-07 05:10:00,
2013-10-07 01:15:00,61.8,58.2,29.85,SW,223,0.0,0.0,88,0.00,,,0.00,Wunderground v.1.15,2013-10-07 05:15:00,
2013-10-07 01:20:00,61.9,58.3,29.85,SW,223,0.0,0.0,88,0.00,,,0.00,Wunderground v.1.15,2013-10-07 05:20:00,
2013-10-07 01:25:00,62.0,58.4,29.85,SW,223,0.0,0.0,88,0.00,,,0.00,Wunderground v.1.15,2013-10-07 05:25:00,
2013-10-07 01:30:00,62.3,58.7,29.85,SW,223,0.0,0.0,88,0.00,,,0.00,Wunderground v.1.15,2013-10-07 05:30:00,
2013-10-07 01:40:00,62.6,59.0,29.85,SW,223,0.0,0.0,88,0.00,,,0.01,Wunderground v.1.15,2013-10-07 05:40:00,
2013-10-07 01:45:00,62.6,58.7,29.84,SW,223,0.0,0.0,87,0.15,,,0.03,Wunderground v.1.15,2013-10-07 05:45:00,
2013-10-07 01:50:00,62.6,58.7,29.84,SW,223,0.0,0.0,87,0.11,,,0.03,Wunderground v.1.15,2013-10-07 05:50:00,
2013-10-07 01:55:00,62.6,58.7,29.84,SW,223,0.0,0.0,87,0.09,,,0.04,Wunderground v.1.15,2013-10-07 05:55:00,
2013-10-07 02:00:00,62.6,58.7,29.84,SW,223,0.0,0.0,87,0.11,,,0.05,Wunderground v.1.15,2013-10-07 06:00:00,
2013-10-07 02:10:00,62.5,58.6,29.84,SW,223,0.0,0.0,87,0.05,,,0.06,Wunderground v.1.15,2013-10-07 06:10:00,
2013-10-07 02:15:00,62.5,58.6,29.84,SW,223,0.0,0.0,87,0.05,,,0.06,Wunderground v.1.15,2013-10-07 06:15:00,
2013-10-07 02:25:00,62.4,58.8,29.83,SW,223,0.0,0.0,88,0.04,,,0.06,Wunderground v.1.15,2013-10-07 06:25:00,
2013-10-07 02:30:00,62.3,58.7,29.83,SW,223,0.0,0.0,88,0.00,,,0.07,Wunderground v.1.15,2013-10-07 06:30:00,
2013-10-07 02:35:00,62.3,58.7,29.84,SW,223,0.0,0.0,88,0.00,,,0.07,Wunderground v.1.15,2013-10-07 06:35:00,
2013-10-07 02:40:00,62.3,58.7,29.84,SW,223,0.0,0.0,88,0.06,,,0.08,Wunderground v.1.15,2013-10-07 06:40:00,
2013-10-07 02:50:00,62.3,58.7,29.84,SW,223,0.0,0.0,88,0.05,,,0.08,Wunderground v.1.15,2013-10-07 06:50:00,
2013-10-07 02:55:00,62.3,58.7,29.84,SW,223,0.0,0.0,88,0.04,,,0.09,Wunderground v.1.15,2013-10-07 06:55:00,
2013-10-07 03:00:00,62.3,58.7,29.84,SW,223,0.0,0.0,88,0.04,,,0.09,Wunderground v.1.15,2013-10-07 07:00:00,
2013-10-07 03:10:00,62.3,58.7,29.83,SW,223,0.0,0.0,88,0.40,,,0.15,Wunderground v.1.15,2013-10-07 07:10:00,
2013-10-07 03:15:00,62.3,58.7,29.84,SW,223,0.0,0.0,88,0.44,,,0.18,Wunderground v.1.15,2013-10-07 07:15:00,
2013-10-07 03:25:00,62.3,58.7,29.82,SW,223,0.0,0.0,88,0.45,,,0.24,Wunderground v.1.15,2013-10-07 07:25:00,
2013-10-07 03:30:00,62.4,58.8,29.82,WSW,242,0.0,0.0,88,0.17,,,0.25,Wunderground v.1.15,2013-10-07 07:30:00,
2013-10-07 03:40:00,62.5,58.9,29.80,WSW,242,0.0,0.0,88,0.08,,,0.26,Wunderground v.1.15,2013-10-07 07:40:00,
2013-10-07 03:45:00,62.5,58.9,29.80,WSW,242,0.0,0.0,88,0.06,,,0.26,Wunderground v.1.15,2013-10-07 07:45:00,
2013-10-07 03:50:00,62.5,58.9,29.81,WSW,242,0.0,0.0,88,0.04,,,0.26,Wunderground v.1.15,2013-10-07 07:50:00,
2013-10-07 03:55:00,62.4,58.8,29.80,WSW,242,0.0,0.0,88,0.00,,,0.26,Wunderground v.1.15,2013-10-07 07:55:00,
2013-10-07 04:00:00,62.4,58.8,29.80,WSW,242,0.0,0.0,88,0.00,,,0.26,Wunderground v.1.15,2013-10-07 08:00:00,
2013-10-07 04:10:00,62.5,58.9,29.80,WSW,242,0.0,0.0,88,0.00,,,0.26,Wunderground v.1.15,2013-10-07 08:10:00,
2013-10-07 04:15:00,62.5,58.9,29.80,WSW,242,0.0,0.0,88,0.00,,,0.26,Wunderground v.1.15,2013-10-07 08:15:00,
2013-10-07 04:20:00,62.7,59.1,29.80,WSW,242,0.0,0.0,88,0.00,,,0.26,Wunderground v.1.15,2013-10-07 08:20:00,
2013-10-07 04:25:00,62.8,59.2,29.80,WSW,242,0.0,0.0,88,0.00,,,0.26,Wunderground v.1.15,2013-10-07 08:25:00,
2013-10-07 04:30:00,62.7,59.1,29.80,WSW,242,0.0,0.0,88,0.00,,,0.26,Wunderground v.1.15,2013-10-07 08:30:00,
2013-10-07 04:40:00,62.7,59.1,29.80,SSE,161,0.0,0.0,88,0.00,,,0.26,Wunderground v.1.15,2013-10-07 08:40:00,
2013-10-07 04:45:00,62.8,59.5,29.80,WSW,240,0.0,0.0,89,0.00,,,0.26,Wunderground v.1.15,2013-10-07 08:45:00,
2013-10-07 04:55:00,62.8,59.5,29.80,WSW,240,0.0,2.0,89,0.00,,,0.26,Wunderground v.1.15,2013-10-07 08:55:00,
2013-10-07 05:00:00,62.9,59.6,29.81,WNW,292,1.0,5.0,89,0.00,,,0.26,Wunderground v.1.15,2013-10-07 09:00:00,
2013-10-07 05:05:00,62.0,58.7,29.81,WSW,258,3.0,8.0,89,0.00,,,0.26,Wunderground v.1.15,2013-10-07 09:05:00,
2013-10-07 05:10:00,60.8,57.2,29.81,West,276,5.0,5.0,88,0.00,,,0.27,Wunderground v.1.15,2013-10-07 09:10:00,
2013-10-07 05:20:00,59.8,56.2,29.80,SW,220,2.0,2.0,88,0.46,,,0.31,Wunderground v.1.15,2013-10-07 09:20:00,
2013-10-07 05:25:00,59.5,55.9,29.81,North,350,2.0,2.0,88,0.35,,,0.34,Wunderground v.1.15,2013-10-07 09:25:00,
2013-10-07 05:30:00,59.1,55.5,29.83,NNW,336,3.0,4.0,88,0.88,,,0.38,Wunderground v.1.15,2013-10-07 09:30:00,
2013-10-07 05:40:00,57.8,54.3,29.83,WSW,254,2.0,2.0,88,0.42,,,0.52,Wunderground v.1.15,2013-10-07 09:40:00,
2013-10-07 05:45:00,57.3,53.8,29.84,West,259,3.0,8.0,88,0.40,,,0.55,Wunderground v.1.15,2013-10-07 09:45:00,
2013-10-07 05:50:00,56.9,53.4,29.84,West,264,4.0,4.0,88,0.21,,,0.58,Wunderground v.1.15,2013-10-07 09:50:00,
2013-10-07 05:55:00,56.6,53.4,29.83,North,5,2.0,4.0,89,0.23,,,0.60,Wunderground v.1.15,2013-10-07 09:55:00,
2013-10-07 06:00:00,56.4,52.9,29.84,WNW,296,1.0,1.0,88,0.20,,,0.61,Wunderground v.1.15,2013-10-07 10:00:00,
2013-10-07 06:10:00,56.4,52.9,29.85,NW,315,1.0,5.0,88,0.15,,,0.64,Wunderground v.1.15,2013-10-07 10:10:00,
2013-10-07 06:15:00,56.3,52.8,29.88,West,277,4.0,7.0,88,0.17,,,0.66,Wunderground v.1.15,2013-10-07 10:15:00,
2013-10-07 06:25:00,55.9,52.4,29.86,SW,225,3.0,5.0,88,0.10,,,0.67,Wunderground v.1.15,2013-10-07 10:25:00,
2013-10-07 06:30:00,55.7,52.5,29.86,WSW,252,3.0,3.0,89,0.06,,,0.67,Wunderground v.1.15,2013-10-07 10:30:00,
2013-10-07 06:35:00,55.7,52.5,29.86,WSW,249,4.0,4.0,89,0.06,,,0.68,Wunderground v.1.15,2013-10-07 10:35:00,
2013-10-07 06:40:00,55.7,52.5,29.86,NW,313,4.0,6.0,89,0.09,,,0.69,Wunderground v.1.15,2013-10-07 10:40:00,
2013-10-07 06:45:00,55.7,52.5,29.86,WNW,284,4.0,6.0,89,0.07,,,0.69,Wunderground v.1.15,2013-10-07 10:45:00,
2013-10-07 06:55:00,55.7,52.5,29.87,West,273,2.0,4.0,89,0.07,,,0.71,Wunderground v.1.15,2013-10-07 10:55:00,
2013-10-07 07:00:00,55.5,52.3,29.87,WSW,251,1.0,1.0,89,0.07,,,0.71,Wunderground v.1.15,2013-10-07 11:00:00,
2013-10-07 07:10:00,55.4,52.2,29.88,NW,321,1.0,1.0,89,0.04,,,0.71,Wunderground v.1.15,2013-10-07 11:10:00,
2013-10-07 07:15:00,55.4,52.2,29.90,WNW,293,1.0,1.0,89,0.00,,,0.71,Wunderground v.1.15,2013-10-07 11:15:00,
2013-10-07 07:20:00,55.4,52.2,29.91,NW,311,1.0,2.0,89,0.00,,,0.71,Wunderground v.1.15,2013-10-07 11:20:00,
2013-10-07 07:25:00,55.3,52.1,29.91,NW,312,1.0,2.0,89,0.00,,,0.72,Wunderground v.1.15,2013-10-07 11:25:00,
2013-10-07 07:30:00,55.2,52.0,29.92,NW,326,1.0,1.0,89,0.11,,,0.73,Wunderground v.1.15,2013-10-07 11:30:00,
2013-10-07 07:40:00,55.1,51.9,29.91,West,271,1.0,1.0,89,0.05,,,0.73,Wunderground v.1.15,2013-10-07 11:40:00,
2013-10-07 07:45:00,55.0,51.8,29.91,NW,318,1.0,1.0,89,0.00,,,0.73,Wunderground v.1.15,2013-10-07 11:45:00,
2013-10-07 07:55:00,54.9,51.7,29.89,WNW,300,0.0,2.0,89,0.00,,,0.73,Wunderground v.1.15,2013-10-07 11:55:00,
2013-10-07 08:00:00,54.8,51.6,29.90,NW,315,1.0,1.0,89,0.00,,,0.73,Wunderground v.1.15,2013-10-07 12:00:00,
2013-10-07 08:05:00,54.7,51.5,29.89,WNW,294,0.0,1.0,89,0.00,,,0.73,Wunderground v.1.15,2013-10-07 12:05:00,
2013-10-07 08:10:00,54.6,51.4,29.90,WNW,294,0.0,0.0,89,0.00,,,0.73,Wunderground v.1.15,2013-10-07 12:10:00,
2013-10-07 08:15:00,54.5,51.3,29.88,NW,318,0.0,0.0,89,0.00,,,0.73,Wunderground v.1.15,2013-10-07 12:15:00,
2013-10-07 08:25:00,54.4,51.2,29.89,West,281,0.0,0.0,89,0.00,,,0.73,Wunderground v.1.15,2013-10-07 12:25:00,
2013-10-07 08:30:00,54.2,51.0,29.90,NW,319,1.0,1.0,89,0.00,,,0.73,Wunderground v.1.15,2013-10-07 12:30:00,
2013-10-07 08:40:00,54.2,51.0,29.90,NW,319,0.0,0.0,89,0.00,,,0.73,Wunderground v.1.15,2013-10-07 12:40:00,
2013-10-07 08:45:00,54.1,50.9,29.91,NW,319,0.0,0.0,89,0.00,,,0.73,Wunderground v.1.15,2013-10-07 12:45:00,
2013-10-07 08:55:00,54.3,51.1,29.92,NW,319,0.0,1.0,89,0.00,,,0.73,Wunderground v.1.15,2013-10-07 12:55:00,
2013-10-07 09:00:00,54.1,50.9,29.92,WNW,289,1.0,1.0,89,0.00,,,0.73,Wunderground v.1.15,2013-10-07 13:00:00,
2013-10-07 09:05:00,54.3,51.1,29.93,WNW,289,1.0,1.0,89,0.00,,,0.73,Wunderground v.1.15,2013-10-07 13:05:00,
2013-10-07 09:10:00,54.4,51.2,29.93,WNW,289,0.0,0.0,89,0.00,,,0.73,Wunderground v.1.15,2013-10-07 13:10:00,
2013-10-07 09:15:00,54.6,51.4,29.93,WNW,289,0.0,0.0,89,0.00,,,0.73,Wunderground v.1.15,2013-10-07 13:15:00,
2013-10-07 09:25:00,54.8,51.6,29.93,WNW,289,0.0,0.0,89,0.00,,,0.73,Wunderground v.1.15,2013-10-07 13:25:00,
2013-10-07 09:30:00,54.8,51.6,29.93,WNW,289,0.0,0.0,89,0.00,,,0.73,Wunderground v.1.15,2013-10-07 13:30:00,
2013-10-07 09:35:00,54.5,51.3,29.93,WNW,289,0.0,0.0,89,0.00,,,0.73,Wunderground v.1.15,2013-10-07 13:35:00,
2013-10-07 09:40:00,54.6,51.4,29.94,WNW,289,0.0,0.0,89,0.00,,,0.73,Wunderground v.1.15,2013-10-07 13:40:00,
2013-10-07 09:50:00,54.7,51.5,29.94,WNW,289,0.0,0.0,89,0.00,,,0.73,Wunderground v.1.15,2013-10-07 13:50:00,
2013-10-07 09:55:00,54.8,51.6,29.94,WNW,302,0.0,2.0,89,0.00,,,0.73,Wunderground v.1.15,2013-10-07 13:55:00,
2013-10-07 10:00:00,54.8,51.6,29.94,WNW,297,0.0,2.0,89,0.00,,,0.73,Wunderground v.1.15,2013-10-07 14:00:00,
2013-10-07 10:10:00,54.4,51.2,29.95,WNW,285,1.0,1.0,89,0.00,,,0.73,Wunderground v.1.15,2013-10-07 14:10:00,
2013-10-07 10:15:00,54.4,51.2,29.95,WSW,248,1.0,1.0,89,0.00,,,0.73,Wunderground v.1.15,2013-10-07 14:15:00,
2013-10-07 10:25:00,54.5,51.3,29.95,WSW,255,1.0,2.0,89,0.00,,,0.73,Wunderground v.1.15,2013-10-07 14:25:00,
2013-10-07 10:30:00,54.6,51.4,29.95,NW,305,1.0,1.0,89,0.00,,,0.73,Wunderground v.1.15,2013-10-07 14:30:00,
2013-10-07 10:40:00,55.0,51.8,29.95,WSW,254,0.0,0.0,89,0.00,,,0.73,Wunderground v.1.15,2013-10-07 14:40:00,
2013-10-07 10:45:00,55.1,51.9,29.95,West,267,1.0,1.0,89,0.00,,,0.73,Wunderground v.1.15,2013-10-07 14:45:00,
2013-10-07 10:55:00,55.7,52.5,29.96,West,281,1.0,3.0,89,0.00,,,0.73,Wunderground v.1.15,2013-10-07 14:55:00,
2013-10-07 11:00:00,55.9,52.4,29.96,NNW,340,2.0,6.0,88,0.00,,,0.73,Wunderground v.1.15,2013-10-07 15:00:00,
2013-10-07 11:10:00,56.3,52.8,29.96,NW,308,3.0,3.0,88,0.00,,,0.73,Wunderground v.1.15,2013-10-07 15:10:00,
2013-10-07 11:15:00,56.7,53.2,29.96,West,271,3.0,3.0,88,0.00,,,0.73,Wunderground v.1.15,2013-10-07 15:15:00,
2013-10-07 11:20:00,57.0,53.5,29.97,WNW,295,3.0,3.0,88,0.00,,,0.73,Wunderground v.1.15,2013-10-07 15:20:00,
2013-10-07 11:25:00,56.9,53.1,29.97,NW,318,3.0,3.0,87,0.00,,,0.73,Wunderground v.1.15,2013-10-07 15:25:00,
2013-10-07 11:30:00,57.0,53.2,29.97,WNW,288,2.0,4.0,87,0.00,,,0.73,Wunderground v.1.15,2013-10-07 15:30:00,
2013-10-07 11:40:00,57.7,53.5,29.97,NW,311,3.0,3.0,86,0.00,,,0.73,Wunderground v.1.15,2013-10-07 15:40:00,
2013-10-07 11:50:00,57.8,53.0,29.96,West,281,4.0,6.0,84,0.00,,,0.73,Wunderground v.1.15,2013-10-07 15:50:00,
2013-10-07 11:55:00,58.2,53.4,29.97,WNW,290,4.0,6.0,84,0.00,,,0.73,Wunderground v.1.15,2013-10-07 15:55:00,
2013-10-07 12:00:00,58.7,53.5,29.97,West,278,4.0,5.0,83,0.00,,,0.73,Wunderground v.1.15,2013-10-07 16:00:00,
2013-10-07 12:10:00,59.6,54.1,29.97,NW,306,4.0,4.0,82,0.00,,,0.73,Wunderground v.1.15,2013-10-07 16:10:00,
2013-10-07 12:15:00,60.2,54.0,29.97,WNW,286,4.0,5.0,80,0.00,,,0.73,Wunderground v.1.15,2013-10-07 16:15:00,
2013-10-07 12:20:00,60.6,53.7,29.97,WNW,292,4.0,4.0,78,0.00,,,0.73,Wunderground v.1.15,2013-10-07 16:20:00,
2013-10-07 12:25:00,59.8,52.9,29.97,West,269,4.0,4.0,78,0.00,,,0.73,Wunderground v.1.15,2013-10-07 16:25:00,
2013-10-07 12:30:00,59.9,53.4,29.97,NNW,331,4.0,4.0,79,0.00,,,0.73,Wunderground v.1.15,2013-10-07 16:30:00,
2013-10-07 12:40:00,60.8,53.9,29.97,WSW,240,4.0,4.0,78,0.00,,,0.73,Wunderground v.1.15,2013-10-07 16:40:00,
2013-10-07 12:45:00,61.4,52.7,29.96,West,261,3.0,4.0,73,0.00,,,0.73,Wunderground v.1.15,2013-10-07 16:45:00,
2013-10-07 12:55:00,62.2,54.2,29.96,NW,311,3.0,3.0,75,0.00,,,0.73,Wunderground v.1.15,2013-10-07 16:55:00,
2013-10-07 13:00:00,62.6,53.4,29.96,WNW,294,3.0,3.0,72,0.00,,,0.73,Wunderground v.1.15,2013-10-07 17:00:00,
2013-10-07 13:10:00,62.8,52.9,29.95,NNW,348,5.0,5.0,70,0.00,,,0.73,Wunderground v.1.15,2013-10-07 17:10:00,
2013-10-07 13:15:00,63.6,53.6,29.95,WNW,301,4.0,5.0,70,0.00,,,0.73,Wunderground v.1.15,2013-10-07 17:15:00,
2013-10-07 13:25:00,63.7,53.7,29.95,NW,315,3.0,3.0,70,0.00,,,0.73,Wunderground v.1.15,2013-10-07 17:25:00,
2013-10-07 13:30:00,63.1,53.5,29.95,WNW,294,4.0,4.0,71,0.00,,,0.73,Wunderground v.1.15,2013-10-07 17:30:00,
2013-10-07 13:40:00,62.9,53.7,29.95,WNW,301,3.0,4.0,72,0.00,,,0.73,Wunderground v.1.15,2013-10-07 17:40:00,
2013-10-07 13:45:00,63.8,53.8,29.95,West,267,3.0,4.0,70,0.00,,,0.73,Wunderground v.1.15,2013-10-07 17:45:00,
2013-10-07 13:50:00,64.2,53.8,29.95,NNW,336,3.0,3.0,69,0.00,,,0.73,Wunderground v.1.15,2013-10-07 17:50:00,
2013-10-07 13:55:00,64.4,53.2,29.94,WNW,288,3.0,3.0,67,0.00,,,0.73,Wunderground v.1.15,2013-10-07 17:55:00,
2013-10-07 14:05:00,64.3,52.7,29.94,West,268,4.0,4.0,66,0.00,,,0.73,Wunderground v.1.15,2013-10-07 18:05:00,
2013-10-07 14:10:00,64.3,53.5,29.94,WNW,286,4.0,5.0,68,0.00,,,0.73,Wunderground v.1.15,2013-10-07 18:10:00,
2013-10-07 14:15:00,64.1,52.1,29.94,NNW,346,4.0,5.0,65,0.00,,,0.73,Wunderground v.1.15,2013-10-07 18:15:00,
2013-10-07 14:25:00,64.3,53.9,29.94,West,275,3.0,5.0,69,0.00,,,0.73,Wunderground v.1.15,2013-10-07 18:25:00,
2013-10-07 14:30:00,64.5,52.0,29.94,NW,315,3.0,3.0,64,0.00,,,0.73,Wunderground v.1.15,2013-10-07 18:30:00,
2013-10-07 14:40:00,64.9,51.1,29.94,West,263,4.0,6.0,61,0.00,,,0.73,Wunderground v.1.15,2013-10-07 18:40:00,
2013-10-07 14:45:00,64.6,50.8,29.94,WNW,302,4.0,6.0,61,0.00,,,0.73,Wunderground v.1.15,2013-10-07 18:45:00,
2013-10-07 14:50:00,63.7,51.7,29.94,WNW,303,4.0,4.0,65,0.00,,,0.73,Wunderground v.1.15,2013-10-07 18:50:00,
2013-10-07 14:55:00,63.4,48.8,29.94,WNW,283,5.0,8.0,59,0.00,,,0.73,Wunderground v.1.15,2013-10-07 18:55:00,
2013-10-07 15:00:00,63.3,50.1,29.94,WSW,242,5.0,5.0,62,0.00,,,0.73,Wunderground v.1.15,2013-10-07 19:00:00,
2013-10-07 15:10:00,63.4,53.0,29.94,NW,304,2.0,4.0,69,0.00,,,0.73,Wunderground v.1.15,2013-10-07 19:10:00,
2013-10-07 15:15:00,63.2,50.0,29.94,West,278,4.0,4.0,62,0.00,,,0.73,Wunderground v.1.15,2013-10-07 19:15:00,
2013-10-07 15:25:00,63.4,52.2,29.94,West,281,4.0,6.0,67,0.00,,,0.73,Wunderground v.1.15,2013-10-07 19:25:00,
2013-10-07 15:30:00,63.7,52.1,29.94,WNW,295,2.0,2.0,66,0.00,,,0.73,Wunderground v.1.15,2013-10-07 19:30:00,
2013-10-07 15:35:00,63.8,51.0,29.94,West,281,2.0,2.0,63,0.00,,,0.73,Wunderground v.1.15,2013-10-07 19:35:00,
2013-10-07 15:40:00,64.0,51.6,29.95,WSW,242,1.0,2.0,64,0.00,,,0.73,Wunderground v.1.15,2013-10-07 19:40:00,
2013-10-07 15:45:00,63.9,52.7,29.95,NNW,336,1.0,2.0,67,0.00,,,0.73,Wunderground v.1.15,2013-10-07 19:45:00,
2013-10-07 15:55:00,63.6,52.4,29.95,WSW,242,1.0,3.0,67,0.00,,,0.73,Wunderground v.1.15,2013-10-07 19:55:00,
2013-10-07 16:05:00,63.0,51.9,29.95,West,270,2.0,3.0,67,0.00,,,0.73,Wunderground v.1.15,2013-10-07 20:05:00,
2013-10-07 16:10:00,63.3,52.2,29.95,West,264,2.0,2.0,67,0.00,,,0.73,Wunderground v.1.15,2013-10-07 20:10:00,
2013-10-07 16:15:00,63.4,53.4,29.96,WNW,290,1.0,4.0,70,0.00,,,0.73,Wunderground v.1.15,2013-10-07 20:15:00,
2013-10-07 16:25:00,62.7,52.0,29.96,SSW,196,2.0,2.0,68,0.00,,,0.73,Wunderground v.1.15,2013-10-07 20:25:00,
2013-10-07 16:30:00,62.6,53.4,29.96,WNW,284,1.0,3.0,72,0.00,,,0.73,Wunderground v.1.15,2013-10-07 20:30:00,
2013-10-07 16:35:00,62.8,53.6,29.96,WNW,286,1.0,8.0,72,0.00,,,0.73,Wunderground v.1.15,2013-10-07 20:35:00,
2013-10-07 16:40:00,62.8,50.0,29.96,NW,324,3.0,3.0,63,0.00,,,0.73,Wunderground v.1.15,2013-10-07 20:40:00,
2013-10-07 16:45:00,63.6,49.9,29.96,NW,321,4.0,4.0,61,0.00,,,0.73,Wunderground v.1.15,2013-10-07 20:45:00,
2013-10-07 16:55:00,63.2,51.2,29.96,West,277,2.0,5.0,65,0.00,,,0.73,Wunderground v.1.15,2013-10-07 20:55:00,
2013-10-07 17:00:00,63.3,52.2,29.96,SW,222,3.0,3.0,67,0.00,,,0.73,Wunderground v.1.15,2013-10-07 21:00:00,
2013-10-07 17:10:00,61.4,51.9,29.96,West,272,2.0,4.0,71,0.00,,,0.73,Wunderground v.1.15,2013-10-07 21:10:00,
2013-10-07 17:20:00,60.2,51.5,29.96,WSW,253,3.0,3.0,73,0.00,,,0.73,Wunderground v.1.15,2013-10-07 21:20:00,
2013-10-07 17:25:00,60.8,52.1,29.96,SW,230,3.0,3.0,73,0.00,,,0.73,Wunderground v.1.15,2013-10-07 21:25:00,
2013-10-07 17:35:00,59.9,52.7,29.97,SW,221,1.0,3.0,77,0.00,,,0.73,Wunderground v.1.15,2013-10-07 21:35:00,
2013-10-07 17:40:00,59.5,51.6,29.97,SW,232,1.0,2.0,75,0.00,,,0.73,Wunderground v.1.15,2013-10-07 21:40:00,
2013-10-07 17:45:00,59.3,52.1,29.97,SW,232,1.0,2.0,77,0.00,,,0.73,Wunderground v.1.15,2013-10-07 21:45:00,
2013-10-07 17:55:00,58.8,52.0,29.98,SW,234,1.0,1.0,78,0.00,,,0.73,Wunderground v.1.15,2013-10-07 21:55:00,
2013-10-07 18:00:00,58.8,51.2,29.98,WSW,239,2.0,2.0,76,0.00,,,0.73,Wunderground v.1.15,2013-10-07 22:00:00,
2013-10-07 18:10:00,58.8,51.6,29.98,WSW,239,2.0,3.0,77,0.00,,,0.73,Wunderground v.1.15,2013-10-07 22:10:00,
2013-10-07 18:15:00,58.7,51.5,29.98,WSW,251,2.0,3.0,77,0.00,,,0.73,Wunderground v.1.15,2013-10-07 22:15:00,
2013-10-07 18:20:00,58.5,52.0,29.99,West,263,2.0,3.0,79,0.00,,,0.73,Wunderground v.1.15,2013-10-07 22:20:00,
2013-10-07 18:25:00,58.7,51.2,29.99,WSW,255,2.0,3.0,76,0.00,,,0.73,Wunderground v.1.15,2013-10-07 22:25:00,
2013-10-07 18:30:00,58.7,51.5,29.99,West,279,2.0,2.0,77,0.00,,,0.73,Wunderground v.1.15,2013-10-07 22:30:00,
2013-10-07 18:40:00,58.1,51.6,29.99,West,279,0.0,0.0,79,0.00,,,0.73,Wunderground v.1.15,2013-10-07 22:40:00,
2013-10-07 18:45:00,57.7,51.2,30.00,West,279,0.0,0.0,79,0.00,,,0.73,Wunderground v.1.15,2013-10-07 22:45:00,
2013-10-07 18:55:00,57.0,51.2,30.00,West,279,0.0,0.0,81,0.00,,,0.73,Wunderground v.1.15,2013-10-07 22:55:00,
2013-10-07 19:00:00,56.5,51.4,30.00,West,279,0.0,0.0,83,0.00,,,0.73,Wunderground v.1.15,2013-10-07 23:00:00,
2013-10-07 19:05:00,55.8,51.0,30.00,West,279,0.0,0.0,84,0.00,,,0.73,Wunderground v.1.15,2013-10-07 23:05:00,
2013-10-07 19:10:00,55.3,50.9,30.01,West,279,0.0,0.0,85,0.00,,,0.73,Wunderground v.1.15,2013-10-07 23:10:00,
2013-10-07 19:15:00,54.9,50.5,30.01,West,279,0.0,0.0,85,0.00,,,0.73,Wunderground v.1.15,2013-10-07 23:15:00,
2013-10-07 19:25:00,54.2,50.1,30.01,West,279,0.0,0.0,86,0.00,,,0.73,Wunderground v.1.15,2013-10-07 23:25:00,
2013-10-07 19:30:00,53.5,49.7,30.02,West,279,0.0,0.0,87,0.00,,,0.73,Wunderground v.1.15,2013-10-07 23:30:00,
2013-10-07 19:40:00,52.8,49.3,30.02,West,279,0.0,0.0,88,0.00,,,0.73,Wunderground v.1.15,2013-10-07 23:40:00,
2013-10-07 19:45:00,52.5,49.0,30.02,West,279,0.0,0.0,88,0.00,,,0.73,Wunderground v.1.15,2013-10-07 23:45:00,
2013-10-07 19:55:00,51.9,48.5,30.03,West,279,0.0,0.0,88,0.00,,,0.73,Wunderground v.1.15,2013-10-07 23:55:00,
2013-10-07 20:00:00,51.5,48.1,30.03,West,279,0.0,0.0,88,0.00,,,0.73,Wunderground v.1.15,2013-10-08 00:00:00,
2013-10-07 20:10:00,51.0,48.8,30.03,West,279,0.0,0.0,92,0.00,,,0.73,Wunderground v.1.15,2013-10-08 00:10:00,
2013-10-07 20:15:00,50.8,47.7,30.03,West,279,0.0,0.0,89,0.00,,,0.73,Wunderground v.1.15,2013-10-08 00:15:00,
2013-10-07 20:20:00,50.6,47.5,30.03,West,279,0.0,0.0,89,0.00,,,0.73,Wunderground v.1.15,2013-10-08 00:20:00,
2013-10-07 20:25:00,50.4,47.3,30.04,NW,311,0.0,0.0,89,0.00,,,0.73,Wunderground v.1.15,2013-10-08 00:25:00,
2013-10-07 20:35:00,50.0,46.9,30.04,NW,311,0.0,0.0,89,0.00,,,0.73,Wunderground v.1.15,2013-10-08 00:35:00,
2013-10-07 20:40:00,49.9,46.8,30.05,NW,311,0.0,0.0,89,0.00,,,0.73,Wunderground v.1.15,2013-10-08 00:40:00,
2013-10-07 20:45:00,49.7,46.6,30.05,NW,311,0.0,0.0,89,0.00,,,0.73,Wunderground v.1.15,2013-10-08 00:45:00,
2013-10-07 20:55:00,49.4,46.3,30.06,NW,311,0.0,0.0,89,0.00,,,0.73,Wunderground v.1.15,2013-10-08 00:55:00,
2013-10-07 21:00:00,49.2,46.1,30.07,NW,311,0.0,0.0,89,0.00,,,0.73,Wunderground v.1.15,2013-10-08 01:00:00,
2013-10-07 21:05:00,49.1,46.0,30.07,NW,311,0.0,0.0,89,0.00,,,0.73,Wunderground v.1.15,2013-10-08 01:05:00,
2013-10-07 21:10:00,48.8,46.0,30.07,NW,311,0.0,0.0,90,0.00,,,0.73,Wunderground v.1.15,2013-10-08 01:10:00,
2013-10-07 21:20:00,48.5,45.4,30.07,NW,311,0.0,0.0,89,0.00,,,0.73,Wunderground v.1.15,2013-10-08 01:20:00,
2013-10-07 21:25:00,48.3,45.5,30.08,West,280,0.0,0.0,90,0.00,,,0.73,Wunderground v.1.15,2013-10-08 01:25:00,
2013-10-07 21:30:00,48.3,45.5,30.08,West,280,0.0,0.0,90,0.00,,,0.73,Wunderground v.1.15,2013-10-08 01:30:00,
2013-10-07 21:40:00,48.2,45.4,30.08,West,280,0.0,0.0,90,0.00,,,0.73,Wunderground v.1.15,2013-10-08 01:40:00,
2013-10-07 21:45:00,48.1,45.3,30.08,West,280,0.0,0.0,90,0.00,,,0.73,Wunderground v.1.15,2013-10-08 01:45:00,
2013-10-07 21:50:00,48.1,45.3,30.08,WNW,286,0.0,0.0,90,0.00,,,0.73,Wunderground v.1.15,2013-10-08 01:50:00,
2013-10-07 22:00:00,47.9,45.1,30.09,West,262,0.0,0.0,90,0.00,,,0.73,Wunderground v.1.15,2013-10-08 02:00:00,
2013-10-07 22:05:00,47.8,45.0,30.09,West,262,0.0,0.0,90,0.00,,,0.73,Wunderground v.1.15,2013-10-08 02:05:00,
2013-10-07 22:10:00,47.6,44.8,30.09,West,269,0.0,2.0,90,0.00,,,0.73,Wunderground v.1.15,2013-10-08 02:10:00,
2013-10-07 22:15:00,47.4,44.6,30.10,West,269,0.0,2.0,90,0.00,,,0.73,Wunderground v.1.15,2013-10-08 02:15:00,
2013-10-07 22:25:00,47.0,44.2,30.11,West,269,0.0,0.0,90,0.00,,,0.73,Wunderground v.1.15,2013-10-08 02:25:00,
2013-10-07 22:30:00,46.9,44.1,30.11,West,269,0.0,0.0,90,0.00,,,0.73,Wunderground v.1.15,2013-10-08 02:30:00,
2013-10-07 22:40:00,46.6,43.8,30.11,West,269,0.0,1.0,90,0.00,,,0.73,Wunderground v.1.15,2013-10-08 02:40:00,
2013-10-07 22:50:00,46.4,43.6,30.12,West,269,0.0,0.0,90,0.00,,,0.73,Wunderground v.1.15,2013-10-08 02:50:00,
2013-10-07 22:55:00,46.3,43.5,30.12,West,269,0.0,0.0,90,0.00,,,0.73,Wunderground v.1.15,2013-10-08 02:55:00,
2013-10-07 23:05:00,46.3,43.5,30.13,West,263,0.0,0.0,90,0.00,,,0.73,Wunderground v.1.15,2013-10-08 03:05:00,
2013-10-07 23:10:00,46.1,43.3,30.13,West,263,0.0,0.0,90,0.00,,,0.73,Wunderground v.1.15,2013-10-08 03:10:00,
2013-10-07 23:15:00,46.0,43.2,30.13,West,263,0.0,0.0,90,0.00,,,0.73,Wunderground v.1.15,2013-10-08 03:15:00,
2013-10-07 23:25:00,45.6,42.8,30.13,West,263,0.0,0.0,90,0.00,,,0.73,Wunderground v.1.15,2013-10-08 03:25:00,
2013-10-07 23:30:00,45.4,42.6,30.14,West,263,0.0,0.0,90,0.00,,,0.73,Wunderground v.1.15,2013-10-08 03:30:00,
2013-10-07 23:40:00,45.2,42.7,30.14,West,263,0.0,0.0,91,0.00,,,0.73,Wunderground v.1.15,2013-10-08 03:40:00,
2013-10-07 23:45:00,45.2,42.7,30.14,West,263,0.0,0.0,91,0.00,,,0.73,Wunderground v.1.15,2013-10-08 03:45:00,
2013-10-07 23:50:00,45.1,42.3,30.14,West,263,0.0,0.0,90,0.00,,,0.73,Wunderground v.1.15,2013-10-08 03:50:00,
2013-10-07 23:55:00,45.0,42.5,30.14,West,263,0.0,0.0,91,0.00,,,0.73,Wunderground v.1.15,2013-10-08 03:55:00,